This demonstration page uses our WeatherBlox Daily Observations layout. Learn more.

Left ArrowRight Arrow

Hourly Observations for January 8, 2020

Temp ( °F °C ) Dew Point ( °F °C ) Humidity (%) Winds ( mph kmh ) Pressure ( in mb ) Visibility ( mi km ) Precip ( " mm )
12:15 am 00:15 Cloudy 36 2 34 1 93 93 WSW 10 17 30.12 1020 10 16.0934 N/A
12:35 am 00:35 Partly Cloudy 36 2 32 0 87 87 W 14 22 30.11 1020 10 16.0934 N/A
12:56 am 00:56 Clear 34 1 32 0 93 93 W 10 17 30.12 1020 10 16.0934 N/A
1:15 am 01:15 Clear 34 1 32 0 93 93 W 9 15 30.12 1020 10 16.0934 N/A
1:35 am 01:35 Clear 32 0 32 0 100 100 W 12 19 30.13 1020 10 16.0934 N/A
1:55 am 01:55 Clear 34 1 32 0 93 93 W 13 20 30.13 1020 10 16.0934 N/A
2:16 am 02:16 Clear 32 0 32 0 100 100 W 12 19 30.14 1020 10 16.0934 N/A
2:36 am 02:36 Clear 32 0 32 0 100 100 W 14 22 30.15 1021 10 16.0934 N/A
2:55 am 02:55 Clear 32 0 32 0 100 100 W 10 17 30.16 1021 10 16.0934 N/A
3:16 am 03:16 Clear 32 0 30 -1 93 93 W 10 17 30.16 1021 10 16.0934 N/A
3:35 am 03:35 Clear 32 0 30 -1 93 93 W 13 20 30.17 1022 10 16.0934 N/A
3:55 am 03:55 Clear 30 -1 28 -2 93 93 W 12 19 30.18 1022 10 16.0934 N/A
4:16 am 04:16 Clear 32 0 27 -3 80 80 W 13 20 30.18 1022 10 16.0934 N/A
4:36 am 04:36 Clear 30 -1 27 -3 86 86 WNW 13 20 30.19 1022 10 16.0934 N/A
4:55 am 04:55 Clear 30 -1 25 -4 80 80 WNW 15 24 30.2 1023 10 16.0934 N/A
5:15 am 05:15 Clear 30 -1 25 -4 80 80 W 13 20 30.2 1023 10 16.0934 N/A
5:35 am 05:35 Clear 30 -1 23 -5 75 75 WNW 14 22 30.21 1023 10 16.0934 N/A
5:56 am 05:56 Clear 28 -2 21 -6 74 74 WNW 15 24 30.23 1024 10 16.0934 N/A
6:15 am 06:15 Clear 28 -2 19 -7 69 69 W 14 22 30.24 1024 10 16.0934 N/A
6:35 am 06:35 Clear 28 -2 18 -8 64 64 WNW 16 26 30.25 1024 10 16.0934 N/A
6:55 am 06:55 Clear 28 -2 18 -8 64 64 WNW 17 28 30.26 1025 10 16.0934 N/A
7:16 am 07:16 Clear 27 -3 16 -9 64 64 W 14 22 30.27 1025 10 16.0934 N/A
7:35 am 07:35 Clear 27 -3 16 -9 64 64 WNW 17 28 30.3 1026 10 16.0934 N/A
7:56 am 07:56 Clear 27 -3 16 -9 64 64 WNW 16 26 30.31 1026 10 16.0934 N/A
8:16 am 08:16 Sunny 27 -3 16 -9 64 64 WNW 15 24 30.33 1027 10 16.0934 N/A
8:35 am 08:35 Sunny 25 -4 16 -9 69 69 NW 10 17 30.33 1027 10 16.0934 N/A
8:55 am 08:55 Sunny 27 -3 18 -8 69 69 WNW 16 26 30.35 1028 10 16.0934 N/A
9:15 am 09:15 Sunny 27 -3 18 -8 69 69 WNW 13 20 30.37 1028 10 16.0934 N/A
9:36 am 09:36 Sunny 27 -3 18 -8 69 69 WNW 16 26 30.38 1029 10 16.0934 N/A
9:56 am 09:56 Sunny 27 -3 18 -8 69 69 NW 16 26 30.4 1029 10 16.0934 N/A
10:15 am 10:15 Sunny 27 -3 19 -7 74 74 NW 14 22 30.42 1030 10 16.0934 N/A
10:36 am 10:36 Sunny 27 -3 18 -8 69 69 NW 15 24 30.42 1030 10 16.0934 N/A
10:56 am 10:56 Sunny 27 -3 18 -8 69 69 WNW 10 17 30.43 1030 10 16.0934 N/A
11:16 am 11:16 Sunny 28 -2 16 -9 59 59 WNW 13 20 30.43 1031 10 16.0934 N/A
11:35 am 11:35 Sunny 28 -2 16 -9 59 59 NNW 12 19 30.43 1031 10 16.0934 N/A
11:55 am 11:55 Sunny 28 -2 16 -9 59 59 NW 8 13 30.44 1031 10 16.0934 N/A
12:15 pm 12:15 Sunny 28 -2 16 -9 59 59 NW 8 13 30.44 1031 10 16.0934 N/A
12:35 pm 12:35 Sunny 28 -2 16 -9 59 59 N 9 15 30.43 1031 10 16.0934 N/A
12:55 pm 12:55 Sunny 30 -1 18 -8 59 59 WNW 7 11 30.43 1030 10 16.0934 N/A
1:15 pm 13:15 Sunny 28 -2 16 -9 59 59 NW 3 6 30.43 1031 10 16.0934 N/A
1:35 pm 13:35 Sunny 30 -1 18 -8 59 59 NW 9 15 30.43 1030 10 16.0934 N/A
1:55 pm 13:55 Sunny 30 -1 18 -8 59 59 WNW 6 9 30.44 1031 10 16.0934 N/A
2:15 pm 14:15 Sunny 30 -1 18 -8 59 59 NW 3 6 30.44 1031 10 16.0934 N/A
2:35 pm 14:35 Sunny 30 -1 18 -8 59 59 N 3 6 30.44 1031 10 16.0934 N/A
2:56 pm 14:56 Sunny 32 0 18 -8 55 55 NNE 5 7 30.43 1030 10 16.0934 N/A
3:16 pm 15:16 Sunny 30 -1 18 -8 59 59 NNW 3 6 30.44 1031 10 16.0934 N/A
3:35 pm 15:35 Sunny 30 -1 18 -8 59 59 NW 3 6 30.44 1031 10 16.0934 N/A
3:55 pm 15:55 Sunny 32 0 18 -8 55 55 N 3 6 30.44 1031 10 16.0934 N/A
4:16 pm 16:16 Sunny 30 -1 18 -8 59 59 ENE 3 6 30.44 1031 10 16.0934 N/A
4:35 pm 16:35 Sunny 30 -1 18 -8 59 59 Calm 30.46 1031 10 16.0934 N/A
4:56 pm 16:56 Sunny 30 -1 19 -7 64 64 Calm 30.48 1032 10 16.0934 N/A
5:15 pm 17:15 Sunny 30 -1 19 -7 64 64 Calm 30.49 1032 10 16.0934 N/A
5:35 pm 17:35 Sunny 28 -2 18 -8 64 64 Calm 30.49 1033 10 16.0934 N/A
5:56 pm 17:56 Clear 27 -3 19 -7 74 74 E 3 6 30.5 1033 10 16.0934 N/A
6:15 pm 18:15 Clear 25 -4 19 -7 80 80 ENE 5 7 30.5 1033 10 16.0934 N/A
6:35 pm 18:35 Clear 25 -4 21 -6 86 86 E 5 7 30.5 1033 10 16.0934 N/A
6:55 pm 18:55 Clear 25 -4 19 -7 80 80 E 6 9 30.5 1033 10 16.0934 N/A
7:15 pm 19:15 Clear 23 -5 21 -6 93 93 ENE 5 7 30.5 1033 10 16.0934 N/A
7:36 pm 19:36 Clear 23 -5 21 -6 93 93 E 6 9 30.5 1033 10 16.0934 N/A
7:56 pm 19:56 Clear 23 -5 21 -6 93 93 E 7 11 30.49 1033 10 16.0934 N/A
8:15 pm 20:15 Clear 23 -5 21 -6 93 93 E 7 11 30.49 1033 10 16.0934 N/A
8:35 pm 20:35 Clear 23 -5 21 -6 93 93 E 6 9 30.49 1033 10 16.0934 N/A
8:55 pm 20:55 Clear 23 -5 21 -6 93 93 E 6 9 30.48 1032 10 16.0934 N/A
9:16 pm 21:16 Clear 23 -5 21 -6 93 93 E 5 7 30.49 1033 10 16.0934 N/A
9:35 pm 21:35 Clear 23 -5 21 -6 93 93 E 6 9 N/A 10 16.0934 N/A
9:56 pm 21:56 Clear 23 -5 21 -6 93 93 E 7 11 30.48 1032 10 16.0934 N/A
10:16 pm 22:16 Clear 25 -4 21 -6 86 86 E 7 11 30.47 1032 10 16.0934 N/A
10:35 pm 22:35 Clear 25 -4 21 -6 86 86 ESE 6 9 30.47 1032 10 16.0934 N/A
10:56 pm 22:56 Clear 25 -4 21 -6 86 86 ESE 7 11 30.47 1032 10 16.0934 N/A
11:16 pm 23:16 Clear 25 -4 21 -6 86 86 ESE 8 13 30.46 1032 10 16.0934 N/A
11:36 pm 23:36 Clear 25 -4 21 -6 86 86 ESE 8 13 30.45 1031 10 16.0934 N/A
11:56 pm 23:56 Clear 25 -4 21 -6 86 86 ESE 9 15 30.45 1031 10 16.0934 N/A

Powered by AerisWeather